TimeCDT,TemperatureF,Dew PointF,Humidity,Sea Level PressureIn,VisibilityMPH,Wind Direction,Wind SpeedMPH,Gust SpeedMPH,PrecipitationIn,Events,Conditions,WindDirDegrees,DateUTC
12:15 AM,64.4,59.0,83,30.10,10.0,Calm,Calm,-,N/A,,Clear,0,2013-07-11 05:15:00
12:35 AM,64.4,59.0,83,30.10,10.0,SSE,6.9,-,N/A,,Clear,150,2013-07-11 05:35:00
12:55 AM,64.4,57.2,77,30.10,10.0,SE,6.9,-,N/A,,Clear,140,2013-07-11 05:55:00
1:15 AM,62.6,57.2,82,30.10,8.0,SSE,8.1,-,N/A,,Scattered Clouds,150,2013-07-11 06:15:00
1:35 AM,62.6,57.2,82,30.10,10.0,SSE,8.1,-,N/A,,Partly Cloudy,150,2013-07-11 06:35:00
1:55 AM,62.6,57.2,82,30.10,10.0,SSE,8.1,-,N/A,,Partly Cloudy,150,2013-07-11 06:55:00
2:15 AM,62.6,57.2,82,30.09,10.0,Calm,Calm,-,N/A,,Partly Cloudy,0,2013-07-11 07:15:00
2:35 AM,62.6,57.2,82,30.09,10.0,SE,8.1,-,N/A,,Scattered Clouds,140,2013-07-11 07:35:00
2:55 AM,62.6,55.4,77,30.09,10.0,SSE,8.1,-,N/A,,Mostly Cloudy,150,2013-07-11 07:55:00
3:15 AM,60.8,55.4,82,30.09,10.0,SSE,6.9,-,N/A,,Partly Cloudy,150,2013-07-11 08:15:00
3:35 AM,60.8,55.4,82,30.09,6.0,Calm,Calm,-,N/A,,Clear,0,2013-07-11 08:35:00
3:55 AM,60.8,55.4,82,30.10,10.0,SSE,3.5,-,N/A,,Partly Cloudy,160,2013-07-11 08:55:00
4:15 AM,60.8,55.4,82,30.10,10.0,South,6.9,-,N/A,,Partly Cloudy,170,2013-07-11 09:15:00
4:35 AM,62.6,55.4,77,30.10,10.0,SSE,5.8,-,N/A,,Partly Cloudy,160,2013-07-11 09:35:00
4:55 AM,62.6,55.4,77,30.10,10.0,South,4.6,-,N/A,,Clear,170,2013-07-11 09:55:00
5:15 AM,62.6,55.4,77,30.10,10.0,South,4.6,-,N/A,,Clear,170,2013-07-11 10:15:00
5:35 AM,60.8,55.4,82,30.10,10.0,South,6.9,-,N/A,,Clear,170,2013-07-11 10:35:00
5:55 AM,60.8,55.4,82,30.10,10.0,SSE,4.6,-,N/A,,Clear,160,2013-07-11 10:55:00
6:15 AM,60.8,55.4,82,30.10,9.0,SSE,6.9,-,N/A,,Mostly Cloudy,150,2013-07-11 11:15:00
6:35 AM,60.8,55.4,82,30.10,8.0,SSE,5.8,-,N/A,,Scattered Clouds,150,2013-07-11 11:35:00
6:55 AM,62.6,55.4,77,30.10,8.0,South,8.1,-,N/A,,Clear,170,2013-07-11 11:55:00
7:15 AM,62.6,55.4,77,30.11,10.0,South,5.8,-,N/A,,Partly Cloudy,170,2013-07-11 12:15:00
7:35 AM,64.4,57.2,77,30.12,10.0,South,5.8,-,N/A,,Scattered Clouds,190,2013-07-11 12:35:00
7:55 AM,64.4,57.2,77,30.12,10.0,South,6.9,-,N/A,,Partly Cloudy,190,2013-07-11 12:55:00
8:15 AM,66.2,57.2,73,30.11,10.0,South,6.9,-,N/A,,Partly Cloudy,190,2013-07-11 13:15:00
8:35 AM,68.0,59.0,73,30.10,10.0,South,8.1,-,N/A,,Partly Cloudy,190,2013-07-11 13:35:00
8:55 AM,69.8,57.2,64,30.11,10.0,SSW,9.2,-,N/A,,Clear,200,2013-07-11 13:55:00
9:15 AM,71.6,59.0,64,30.10,10.0,South,9.2,-,N/A,,Clear,180,2013-07-11 14:15:00
9:35 AM,71.6,57.2,60,30.09,10.0,South,9.2,17.3,N/A,,Clear,180,2013-07-11 14:35:00
9:55 AM,73.4,57.2,57,30.09,10.0,SSW,10.4,17.3,N/A,,Clear,200,2013-07-11 14:55:00
10:15 AM,73.4,59.0,61,30.09,10.0,South,9.2,-,N/A,,Clear,180,2013-07-11 15:15:00
10:35 AM,75.2,59.0,57,30.08,10.0,SSW,9.2,17.3,N/A,,Clear,210,2013-07-11 15:35:00
10:55 AM,75.2,60.8,61,30.07,10.0,South,9.2,17.3,N/A,,Clear,180,2013-07-11 15:55:00
11:15 AM,75.2,60.8,61,30.06,10.0,South,11.5,17.3,N/A,,Clear,190,2013-07-11 16:15:00
11:35 AM,77.0,60.8,57,30.05,10.0,South,11.5,18.4,N/A,,Clear,190,2013-07-11 16:35:00
11:55 AM,77.0,60.8,57,30.05,10.0,South,11.5,21.9,N/A,,Clear,190,2013-07-11 16:55:00
12:15 PM,78.8,62.6,57,30.06,10.0,SSW,10.4,19.6,N/A,,Clear,210,2013-07-11 17:15:00
12:35 PM,78.8,62.6,57,30.04,10.0,SSW,10.4,18.4,N/A,,Clear,210,2013-07-11 17:35:00
12:55 PM,80.6,62.6,54,30.04,10.0,SW,11.5,20.7,N/A,,Clear,220,2013-07-11 17:55:00
1:15 PM,80.6,60.8,51,30.03,10.0,SSW,11.5,25.3,N/A,,Clear,200,2013-07-11 18:15:00
1:35 PM,80.6,60.8,51,30.03,10.0,SSW,13.8,23.0,N/A,,Clear,200,2013-07-11 18:35:00
1:55 PM,80.6,62.6,54,30.02,10.0,SSW,13.8,21.9,N/A,,Clear,200,2013-07-11 18:55:00
2:15 PM,80.6,62.6,54,30.02,10.0,SSW,10.4,18.4,N/A,,Clear,210,2013-07-11 19:15:00
2:35 PM,82.4,62.6,51,30.01,10.0,SSW,13.8,21.9,N/A,,Clear,200,2013-07-11 19:35:00
2:55 PM,80.6,62.6,54,30.01,10.0,SSW,11.5,20.7,N/A,,Clear,200,2013-07-11 19:55:00
3:15 PM,82.4,62.6,51,30.01,10.0,SW,15.0,23.0,N/A,,Clear,220,2013-07-11 20:15:00
3:35 PM,82.4,62.6,51,30.00,10.0,SW,13.8,20.7,N/A,,Clear,220,2013-07-11 20:35:00
3:55 PM,82.4,62.6,51,29.99,10.0,SSW,12.7,20.7,N/A,,Clear,210,2013-07-11 20:55:00
4:15 PM,82.4,62.6,51,29.99,10.0,SSW,12.7,21.9,N/A,,Clear,210,2013-07-11 21:15:00
4:35 PM,82.4,62.6,51,29.99,10.0,SW,10.4,20.7,N/A,,Clear,220,2013-07-11 21:35:00
4:55 PM,82.4,64.4,54,29.99,10.0,SW,11.5,20.7,N/A,,Clear,220,2013-07-11 21:55:00
5:15 PM,82.4,62.6,51,29.98,10.0,SW,9.2,26.5,N/A,,Clear,220,2013-07-11 22:15:00
5:35 PM,82.4,64.4,54,29.97,10.0,SSW,10.4,21.9,N/A,,Clear,210,2013-07-11 22:35:00
5:55 PM,82.4,64.4,54,29.97,10.0,SSW,9.2,21.9,N/A,,Clear,210,2013-07-11 22:55:00
6:15 PM,82.4,64.4,54,29.97,10.0,SSW,12.7,21.9,N/A,,Clear,210,2013-07-11 23:15:00
6:35 PM,82.4,62.6,51,29.96,10.0,SSW,12.7,20.7,N/A,,Clear,210,2013-07-11 23:35:00
6:55 PM,82.4,62.6,51,29.95,10.0,SSW,9.2,17.3,N/A,,Clear,210,2013-07-11 23:55:00
7:15 PM,82.4,62.6,51,29.95,10.0,SSW,11.5,19.6,N/A,,Clear,210,2013-07-12 00:15:00
7:35 PM,80.6,62.6,54,29.95,10.0,SSW,10.4,17.3,N/A,,Clear,200,2013-07-12 00:35:00
7:55 PM,80.6,62.6,54,29.95,10.0,SSW,9.2,16.1,N/A,,Clear,200,2013-07-12 00:55:00
8:15 PM,80.6,62.6,54,29.95,10.0,SSW,8.1,16.1,N/A,,Clear,210,2013-07-12 01:15:00
8:35 PM,78.8,62.6,57,29.95,10.0,SSW,10.4,17.3,N/A,,Clear,210,2013-07-12 01:35:00
8:55 PM,78.8,62.6,57,29.94,10.0,SSW,6.9,-,N/A,,Clear,200,2013-07-12 01:55:00
9:15 PM,77.0,62.6,61,29.94,10.0,SSW,6.9,-,N/A,,Clear,210,2013-07-12 02:15:00
9:35 PM,75.2,62.6,65,29.94,10.0,SSW,8.1,17.3,N/A,,Clear,200,2013-07-12 02:35:00
9:55 PM,75.2,62.6,65,29.95,10.0,SSW,9.2,17.3,N/A,,Clear,200,2013-07-12 02:55:00
10:15 PM,75.2,62.6,65,29.95,10.0,SSW,11.5,17.3,N/A,,Clear,200,2013-07-12 03:15:00
10:35 PM,75.2,62.6,65,29.95,10.0,SSW,10.4,18.4,N/A,,Clear,210,2013-07-12 03:35:00
10:55 PM,73.4,62.6,69,29.96,10.0,SSW,10.4,18.4,N/A,,Clear,210,2013-07-12 03:55:00
11:15 PM,73.4,62.6,69,29.97,10.0,SSW,9.2,17.3,N/A,,Clear,210,2013-07-12 04:15:00
11:35 PM,73.4,62.6,69,29.97,10.0,SSW,9.2,-,N/A,,Clear,210,2013-07-12 04:35:00
11:55 PM,73.4,62.6,69,29.97,10.0,SSW,9.2,-,N/A,,Clear,210,2013-07-12 04:55:00